Weather History for Colby, KS

Change the Weather History Date:

Friday, April 12, 2013

  Actual Average (KGLD) Record (KGLD)
Temperature  
Mean Temperature 40 °F 48 °F  
Max Temperature 55 °F 63 °F 82 °F (2010)
Min Temperature 26 °F 33 °F 5 °F (1997)
Degree Days  
Heating Degree Days 24 17  
Month to date heating degree days 224  
Since 1 July heating degree days 5399  
Cooling Degree Days 0 0  
Month to date cooling degree days 0  
Year to date cooling degree days 0  
Moisture  
Dew Point 32 °F    
Average Humidity 79    
Maximum Humidity 100    
Minimum Humidity 44    
Precipitation  
Precipitation 0.00 in 0.05 in 1.10 in (1896)
Month to date precipitation 0.54  
Year to date precipitation 2.48  
Snow  
Snow 0.00 in 0.10 in - ()
Month to date snowfall 2.3  
Since 1 July snowfall 33.1  
Snow Depth -    
Sea Level Pressure  
Sea Level Pressure 29.94 in    
Wind  
Wind Speed 7 mph (NNW)    
Max Wind Speed 20 mph    
Max Gust Speed 23 mph    
Visibility 9 miles    
Events Fog , Rain    
T = Trace of Precipitation, MM = Missing Value Source: NWS Daily Summary

Daily Weather History Graph

Daily Weather History Graph

Search for Another Location

Airport:

Trip Planner

Search our weather history database for the weather conditions in past years. The results will help you decide how hot, cold, wet, or windy it might be!

Date:

Astronomy

Apr. 12, 2013 Rise Set
Actual Time 7:11 AM CDT 8:19 PM CDT
Civil Twilight 6:43 AM CDT 8:46 PM CDT
Nautical Twilight 6:10 AM CDT 9:20 PM CDT
Astronomical Twilight 5:36 AM CDT 9:54 PM CDT
Moon 8:22 AM CDT (4/12) 10:51 PM CDT (4/12)
Length of Visible Light 14h 03m
Length of Day
13h 08m
Waxing Crescent, 5% of the Moon is Illuminated
Apr 12
Waxing Crescent
Apr 18
First Quarter
Apr 25
Full
May 2
Last Quarter
May 9
New

Hourly Weather History & Observations

Time (CDT) Temp. Windchill Dew Point Humidity Pressure Visibility Wind Dir Wind Speed Gust Speed Precip Events Conditions
12:15 AM 33.8 °F 29.6 °F 28.4 °F 81% 29.88 in 10.0 mi North 4.6 mph - N/A   Overcast
12:35 AM 32.0 °F 27.5 °F 28.4 °F 87% 29.88 in 10.0 mi North 4.6 mph - N/A   Overcast
12:55 AM 32.0 °F 27.5 °F 28.4 °F 87% 29.89 in 10.0 mi NNW 4.6 mph - N/A   Overcast
1:15 AM 32.0 °F 27.5 °F 28.4 °F 87% 29.90 in 10.0 mi NNW 4.6 mph - N/A   Overcast
1:35 AM 32.0 °F 27.5 °F 28.4 °F 87% 29.91 in 10.0 mi NW 4.6 mph - N/A   Overcast
1:55 AM 32.0 °F 25.6 °F 28.4 °F 87% 29.90 in 10.0 mi WNW 6.9 mph - N/A   Mostly Cloudy
2:15 AM 30.2 °F 22.6 °F 26.6 °F 86% 29.91 in 10.0 mi WNW 8.1 mph - N/A   Scattered Clouds
2:35 AM 28.4 °F 19.1 °F 26.6 °F 93% 29.91 in 10.0 mi WNW 10.4 mph - N/A   Mostly Cloudy
2:55 AM 30.2 °F 24.3 °F 28.4 °F 93% 29.91 in 10.0 mi WSW 5.8 mph - N/A   Overcast
3:15 AM 26.6 °F 20.0 °F 24.8 °F 93% 29.91 in 10.0 mi WNW 5.8 mph - N/A   Scattered Clouds
3:35 AM 26.6 °F 16.8 °F 24.8 °F 93% 29.91 in 10.0 mi West 10.4 mph - N/A   Clear
3:55 AM 26.6 °F 17.5 °F 26.6 °F 100% 29.91 in 10.0 mi West 9.2 mph - N/A   Scattered Clouds
4:15 AM 26.6 °F 16.8 °F 26.6 °F 100% 29.91 in 10.0 mi West 10.4 mph - N/A   Scattered Clouds
4:35 AM 28.4 °F 18.5 °F 26.6 °F 93% 29.91 in 10.0 mi West 11.5 mph - N/A   Clear
4:55 AM 28.4 °F 19.1 °F 26.6 °F 93% 29.90 in 10.0 mi West 10.4 mph - N/A   Scattered Clouds
5:15 AM 28.4 °F 18.0 °F 26.6 °F 93% 29.91 in 10.0 mi West 12.7 mph - N/A   Scattered Clouds
5:35 AM 28.4 °F 19.1 °F 26.6 °F 93% 29.91 in 10.0 mi West 10.4 mph - N/A   Clear
5:55 AM 30.2 °F 21.9 °F 28.4 °F 93% 29.91 in 10.0 mi WNW 9.2 mph - N/A   Mostly Cloudy
6:15 AM 28.4 °F 20.4 °F 28.4 °F 100% 29.91 in 10.0 mi WNW 8.1 mph - N/A   Mostly Cloudy
6:35 AM 30.2 °F 25.4 °F 30.2 °F 100% 29.91 in 10.0 mi WSW 4.6 mph - N/A   Mostly Cloudy
6:55 AM 30.2 °F 24.3 °F 30.2 °F 100% 29.91 in 10.0 mi SW 5.8 mph - N/A   Mostly Cloudy
7:15 AM 30.2 °F 23.4 °F 30.2 °F 100% 29.91 in 10.0 mi West 6.9 mph - N/A   Mostly Cloudy
7:35 AM 32.0 °F 26.4 °F 30.2 °F 93% 29.92 in 10.0 mi WSW 5.8 mph - N/A   Overcast
7:55 AM 32.0 °F 26.4 °F 32.0 °F 100% 29.93 in 10.0 mi West 5.8 mph - N/A   Overcast
8:15 AM 32.0 °F 28.7 °F 32.0 °F 100% 29.92 in 10.0 mi West 3.5 mph - N/A   Overcast
8:35 AM 33.8 °F 29.6 °F 32.0 °F 93% 29.93 in 10.0 mi West 4.6 mph - N/A   Overcast
8:55 AM 35.6 °F 31.7 °F 32.0 °F 87% 29.93 in 10.0 mi West 4.6 mph - N/A   Overcast
9:15 AM 37.4 °F 33.8 °F 33.8 °F 87% 29.93 in 10.0 mi West 4.6 mph - N/A   Overcast
9:35 AM 41.0 °F 38.0 °F 33.8 °F 76% 29.93 in 10.0 mi WNW 4.6 mph - N/A   Overcast
9:55 AM 44.6 °F 40.2 °F 33.8 °F 66% 29.93 in 10.0 mi NW 8.1 mph - N/A   Overcast
10:15 AM 44.6 °F 43.1 °F 35.6 °F 71% 29.93 in 10.0 mi NW 3.5 mph - N/A   Mostly Cloudy
10:35 AM 46.4 °F 42.9 °F 33.8 °F 62% 29.93 in 10.0 mi NNW 6.9 mph - N/A   Mostly Cloudy
10:55 AM 50.0 °F - 33.8 °F 54% 29.93 in 10.0 mi North 11.5 mph 17.3 mph N/A   Scattered Clouds
11:15 AM 50.0 °F - 33.8 °F 54% 29.93 in 10.0 mi North 10.4 mph - N/A   Mostly Cloudy
11:35 AM 50.0 °F - 33.8 °F 54% 29.93 in 10.0 mi North 6.9 mph 16.1 mph N/A   Overcast
11:55 AM 50.0 °F - 33.8 °F 54% 29.94 in 10.0 mi North 6.9 mph - N/A   Overcast
12:15 PM 51.8 °F - 33.8 °F 50% 29.93 in 10.0 mi NNE 9.2 mph 17.3 mph N/A   Mostly Cloudy
12:35 PM 51.8 °F - 33.8 °F 50% 29.93 in 10.0 mi North 12.7 mph 18.4 mph N/A   Overcast
12:55 PM 51.8 °F - 33.8 °F 50% 29.93 in 10.0 mi NNW 8.1 mph 18.4 mph N/A   Overcast
1:15 PM 53.6 °F - 33.8 °F 47% 29.93 in 10.0 mi North 8.1 mph - N/A   Mostly Cloudy
1:35 PM 55.4 °F - 33.8 °F 44% 29.93 in 10.0 mi NNE 4.6 mph - N/A   Mostly Cloudy
1:55 PM 53.6 °F - 33.8 °F 47% 29.93 in 7.0 mi NNE 4.6 mph - N/A   Overcast
2:15 PM 53.6 °F - 33.8 °F 47% 29.94 in 10.0 mi North 8.1 mph - N/A   Overcast
2:35 PM 53.6 °F - 33.8 °F 47% 29.93 in 10.0 mi NNW 5.8 mph - N/A   Overcast
2:55 PM 53.6 °F - 33.8 °F 47% 29.93 in 10.0 mi Calm Calm - N/A   Overcast
3:15 PM 53.6 °F - 33.8 °F 47% 29.93 in 10.0 mi North 6.9 mph - N/A   Overcast
3:35 PM 53.6 °F - 33.8 °F 47% 29.92 in 10.0 mi Calm Calm - N/A   Overcast
3:55 PM 55.4 °F - 33.8 °F 44% 29.92 in 10.0 mi East 4.6 mph - N/A   Overcast
4:15 PM 53.6 °F - 33.8 °F 47% 29.91 in 10.0 mi Calm Calm - N/A   Overcast
4:35 PM 53.6 °F - 33.8 °F 47% 29.91 in 10.0 mi ENE 4.6 mph - N/A   Overcast
4:55 PM 55.4 °F - 33.8 °F 44% 29.90 in 10.0 mi East 11.5 mph 17.3 mph N/A   Overcast
5:15 PM 53.6 °F - 33.8 °F 47% 29.90 in 10.0 mi ENE 11.5 mph - N/A   Overcast
5:35 PM 53.6 °F - 33.8 °F 47% 29.91 in 10.0 mi NNE 16.1 mph 20.7 mph N/A   Overcast
5:55 PM 50.0 °F - 37.4 °F 62% 29.95 in 10.0 mi North 19.6 mph - N/A   Light Drizzle
6:15 PM 44.6 °F 38.1 °F 41.0 °F 87% 29.97 in 7.0 mi North 13.8 mph 23.0 mph N/A Rain Rain
6:55 PM 41.0 °F 33.9 °F 39.2 °F 93% 30.00 in 3.0 mi North 12.7 mph 16.1 mph N/A   Overcast
7:15 PM 41.0 °F 34.3 °F 41.0 °F 100% 29.98 in 10.0 mi NNE 11.5 mph - N/A Rain Light Rain
7:35 PM 41.0 °F 33.5 °F 41.0 °F 100% 29.99 in 10.0 mi NNE 13.8 mph - N/A   Overcast
7:55 PM 41.0 °F 33.5 °F 41.0 °F 100% 29.99 in 10.0 mi NNE 13.8 mph - N/A   Overcast
8:15 PM 39.2 °F 32.5 °F 39.2 °F 100% 29.98 in 10.0 mi NNE 10.4 mph - N/A   Mostly Cloudy
8:35 PM 37.4 °F 32.1 °F 37.4 °F 100% 29.99 in 10.0 mi NNE 6.9 mph - N/A   Scattered Clouds
8:55 PM 35.6 °F 31.7 °F 35.6 °F 100% 30.00 in 10.0 mi NE 4.6 mph - N/A   Scattered Clouds
9:15 PM 35.6 °F 31.7 °F 35.6 °F 100% 30.01 in 7.0 mi NNE 4.6 mph - N/A   Clear
9:35 PM 35.6 °F - 35.6 °F 100% 30.02 in 5.0 mi Calm Calm - N/A   Clear
9:55 PM 33.8 °F - 33.8 °F 100% 30.03 in 2.5 mi Calm Calm - N/A   Clear
10:15 PM 33.8 °F - 33.8 °F 100% 30.04 in 1.0 mi Calm Calm - N/A   Mist
10:35 PM 32.0 °F - 32.0 °F 100% 30.04 in 1.5 mi Calm Calm - N/A   Mist
10:55 PM 32.0 °F - 32.0 °F 100% 30.04 in 0.2 mi Calm Calm - N/A Fog Fog
11:15 PM 32.0 °F - 32.0 °F 100% 30.04 in 1.2 mi Calm Calm - N/A   Scattered Clouds
11:35 PM 32.0 °F 26.4 °F 32.0 °F 100% 30.03 in 0.5 mi SSE 5.8 mph - N/A Fog Fog
11:55 PM 33.8 °F 29.6 °F 33.8 °F 100% 30.03 in 2.5 mi South 4.6 mph - N/A   Scattered Clouds